Location: Stara Lesna
(49.1528°N, 20.2911°E)
Time: 09:39:48
(UTC+02:00)

IRS-1D - Pass Details

Date: 21 September 2019
Orbit: 740 x 816 km, 98.5° (Epoch: 20 October)

Event Time Altitude Azimuth Distance (km) Brightness Sun altitude
Rises 03:25:33 0° 11° (N) 3,356 7.5 -27.6°
Reaches altitude 10° 03:27:56 10° 8° (N) 2,421 6.6 -27.3°
Enters shadow 03:32:42 55° 313° (NW) 977 3.9 -26.7°
